Find Starlink 3851

NORAD ID: 52344 Int'l Des: 2022-045 Owner: SPXS Country: US Constellation: starlink operational
LEOCIRCULAR

リアルタイム位置

3D地球を読み込み中...

Starlink 3851について

説明を読み込み中...

次回通過

Passes for default location (London). Set your location on the main map for personalized predictions.

高度履歴

Loading altitude history...

軌道要素

1 52344U 22045P 26118.99091066 .00000116 00000-0 25362-4 0 9999
2 52344 53.2178 333.3761 0001391 89.5573 270.5578 15.08839186223373
Epoch: Apr 28, 2026 • Age: 12 hours

現在のステータス

高度 540.2 km
速度 7.59 km/s
衛星直下点 3.38°N, 115.9°E
打ち上げ日 Apr 29, 2022
運用期間 3.9 years
タイプ internet

技術仕様

分類 Payload
質量 297.00 kg
乾燥質量 275.00 kg
総質量 297.00 kg
長さ 0.20 m
直径 2.80 m
スパン 9.00 m
形状 Box + pan
製造者 SPXS
バスタイプ Starlink
フェーズステータス In Orbit
所有者/国 SPXS/US

Most Searched